This is the latest recevied weather packets stored in our database for station/object ZL2ASC-13. If no packets are shown the sender has not sent any weather packets the latest 10 day(s).
| Time | Temp. | Humidity | Pressure | Rain* | Wind** | Luminosity | Snow |
|---|---|---|---|---|---|---|---|
| 1788481198 | 16.67° C | 56% | 1005.4 hPa | 0 mm | - | - | - |
| 1788481138 | 16.67° C | 56% | 1005.4 hPa | 0 mm | - | - | - |
| 1788481078 | 16.67° C | 55% | 1005.5 hPa | 0 mm | - | - | - |
| 1788481018 | 16.67° C | 56% | 1005.4 hPa | 0 mm | - | - | - |
| 1788480958 | 16.67° C | 53% | 1005.3 hPa | 0 mm | - | - | - |
| 1788480898 | 16.67° C | 53% | 1005.3 hPa | 0 mm | - | - | - |
| 1788480838 | 16.67° C | 52% | 1005.3 hPa | 0 mm | - | - | - |
| 1788480778 | 16.67° C | 53% | 1005.2 hPa | 0 mm | - | - | - |
| 1788480718 | 17.22° C | 55% | 1005.3 hPa | 0 mm | - | - | - |
| 1788480658 | 17.22° C | 56% | 1005.2 hPa | 0 mm | - | - | - |
| 1788480598 | 16.67° C | 57% | 1005.2 hPa | 0 mm | - | - | - |
| 1788480538 | 16.67° C | 57% | 1005.4 hPa | 0 mm | - | - | - |
| 1788480478 | 16.67° C | 55% | 1005.2 hPa | 0 mm | - | - | - |
| 1788480418 | 16.67° C | 56% | 1005.1 hPa | 0 mm | - | - | - |
| 1788480358 | 16.67° C | 55% | 1005.1 hPa | 0 mm | - | - | - |
| 1788480300 | 17.22° C | 56% | 1005.1 hPa | 0 mm | - | - | - |
| 1788480238 | 16.67° C | 58% | 1005 hPa | 0 mm | - | - | - |
| 1788480178 | 16.67° C | 58% | 1004.9 hPa | 0 mm | - | - | - |
| 1788480118 | 16.67° C | 57% | 1004.9 hPa | 0 mm | - | - | - |
| 1788480058 | 16.67° C | 57% | 1004.9 hPa | 0 mm | - | - | - |
| 1788479998 | 16.67° C | 58% | 1004.9 hPa | 0 mm | - | - | - |
| 1788479938 | 16.11° C | 59% | 1004.9 hPa | 0 mm | - | - | - |
| 1788479878 | 16.67° C | 61% | 1004.9 hPa | 0 mm | - | - | - |
| 1788479817 | 16.67° C | 60% | 1004.9 hPa | 0 mm | - | - | - |
| 1788479757 | 16.67° C | 60% | 1004.9 hPa | 0 mm | - | - | - |
* Rain latest hour (hover to see other rain measurements)
** Current wind speed in m/s (hover to see current wind gust speed)